| time (UTC) | temp F | wind direction | speed MPH | gust MPH | rain 1hr in | rain 24hr in | rain mn in | humidity % | barometer mb |
| 20260505083034 | 56 | 262 | 0.0 | 0.0 | 0.00 | 0.02 | 0.02 | 96 | 1018.5 |
| 20260505082530 | 57 | 262 | 0.0 | 0.0 | 0.00 | 0.02 | 0.02 | 97 | 1018.5 |
| 20260505082027 | 56 | 90 | 0.0 | 0.0 | 0.00 | 0.02 | 0.02 | 96 | 1018.6 |
| 20260505081524 | 56 | 90 | 0.0 | 0.0 | 0.00 | 0.02 | 0.02 | 97 | 1018.8 |
| 20260505081021 | 57 | 270 | 0.0 | 0.0 | 0.00 | 0.02 | 0.02 | 97 | 1018.9 |
| 20260505080517 | 57 | 279 | 0.0 | 0.0 | 0.00 | 0.02 | 0.02 | 97 | 1018.6 |
| 20260505080014 | 57 | 279 | 0.0 | 0.0 | 0.00 | 0.02 | 0.02 | 97 | 1018.9 |
| 20260505075510 | 57 | 279 | 0.0 | 0.0 | 0.00 | 0.02 | 0.02 | 97 | 1018.9 |
| 20260505075007 | 57 | 279 | 0.0 | 0.0 | 0.00 | 0.02 | 0.02 | 97 | 1018.8 |
| 20260505074504 | 57 | 279 | 0.0 | 0.0 | 0.00 | 0.02 | 0.02 | 97 | 1018.9 |
| 20260505074001 | 57 | 279 | 0.0 | 0.0 | 0.00 | 0.02 | 0.02 | 97 | 1018.8 |
| 20260505073458 | 57 | 279 | 0.0 | 0.0 | 0.00 | 0.02 | 0.02 | 96 | 1018.9 |
| 20260505072956 | 57 | 117 | 0.0 | 0.0 | 0.00 | 0.02 | 0.02 | 96 | 1019.0 |
| 20260505072452 | 57 | 90 | 0.0 | 0.0 | 0.02 | 0.02 | 0.02 | 96 | 1019.0 |
| 20260505071948 | 57 | 126 | 0.0 | 2.0 | 0.14 | 0.02 | 0.02 | 96 | 1018.9 |
| 20260505071444 | 57 | 90 | 0.0 | 0.0 | 0.12 | 0.02 | 0.02 | 96 | 1019.0 |
| 20260505070942 | 57 | 90 | 0.0 | 0.0 | 0.02 | 0.00 | 0.00 | 95 | 1019.0 |
| 20260505070439 | 57 | 90 | 0.0 | 0.0 | 0.05 | 0.00 | 0.00 | 95 | 1019.0 |
| 20260505065934 | 57 | 90 | 0.0 | 1.0 | 0.09 | 0.05 | 0.05 | 94 | 1018.9 |
| 20260505065431 | 58 | 173 | 0.0 | 1.0 | 0.12 | 0.04 | 0.04 | 94 | 1018.9 |
| 20260505064928 | 58 | 229 | 2.0 | 3.0 | 0.07 | 0.03 | 0.03 | 94 | 1018.9 |
| 20260505064425 | 58 | 188 | 0.0 | 2.0 | 0.07 | 0.02 | 0.02 | 93 | 1019.2 |
| 20260505063923 | 58 | 262 | 0.0 | 1.0 | 0.07 | 0.02 | 0.02 | 92 | 1019.1 |
| 20260505063419 | 59 | 270 | 0.0 | 0.0 | 0.07 | 0.01 | 0.01 | 91 | 1019.2 |
| 20260505062916 | 59 | 229 | 2.0 | 2.0 | 0.05 | 0.01 | 0.01 | 90 | 1019.0 |
| 20260505062414 | 59 | 246 | 0.0 | 2.0 | 0.00 | 0.00 | 0.00 | 89 | 1018.8 |
| 20260505061910 | 60 | 84 | 0.0 | 3.0 | 0.00 | 0.00 | 0.00 | 88 | 1018.7 |
| 20260505061408 | 60 | 235 | 0.0 | 3.0 | 0.00 | 0.00 | 0.00 | 86 | 1019.0 |
| 20260505060905 | 60 | 81 | 0.0 | 2.0 | 0.00 | 0.00 | 0.00 | 85 | 1019.0 |
| 20260505060402 | 60 | 270 | 0.0 | 2.0 | 0.00 | 0.00 | 0.00 | 84 | 1019.0 |
| 20260505055858 | 60 | 206 | 1.0 | 3.0 | 0.00 | 0.00 | 0.00 | 84 | 1019.1 |
| 20260505055354 | 60 | 221 | 0.0 | 0.0 | 0.00 | 0.00 | 0.00 | 84 | 1019.0 |
| 20260505054852 | 60 | 206 | 0.0 | 2.0 | 0.00 | 0.00 | 0.00 | 84 | 1019.3 |
| 20260505054349 | 60 | 225 | 0.0 | 0.0 | 0.00 | 0.00 | 0.00 | 84 | 1019.2 |
| 20260505053847 | 60 | 282 | 0.0 | 0.0 | 0.00 | 0.00 | 0.00 | 83 | 1019.1 |
| 20260505053344 | 61 | 0 | 0.0 | 0.0 | 0.00 | 0.00 | 0.00 | 83 | 1019.1 |
| 20260505052840 | 60 | 251 | 0.0 | 2.0 | 0.00 | 0.00 | 0.00 | 82 | 1019.0 |
| 20260505052337 | 60 | 201 | 0.0 | 0.0 | 0.00 | 0.00 | 0.00 | 83 | 1019.3 |
| 20260505051834 | 60 | 240 | 0.0 | 0.0 | 0.00 | 0.00 | 0.00 | 83 | 1019.0 |
| 20260505051332 | 60 | 216 | 0.0 | 2.0 | 0.00 | 0.00 | 0.00 | 83 | 1019.0 |
| 20260505050830 | 60 | 254 | 0.0 | 1.0 | 0.00 | 0.00 | 0.00 | 83 | 1019.1 |
| 20260505050328 | 60 | 209 | 0.0 | 1.0 | 0.00 | 0.00 | 0.00 | 83 | 1019.1 |
| 20260505041758 | 60 | 250 | 0.0 | 4.0 | 0.00 | 0.00 | 0.00 | 84 | 1019.5 |
| 20260505041255 | 60 | 243 | 0.0 | 3.0 | 0.00 | 0.00 | 0.00 | 84 | 1019.5 |
| 20260505040752 | 60 | 267 | 3.0 | 4.0 | 0.00 | 0.00 | 0.00 | 84 | 1019.4 |
| 20260505040250 | 60 | 254 | 1.0 | 3.0 | 0.00 | 0.00 | 0.00 | 84 | 1019.5 |
| 20260505035746 | 60 | 195 | 1.0 | 3.0 | 0.00 | 0.00 | 0.00 | 85 | 1019.2 |
| 20260505035242 | 60 | 203 | 0.0 | 3.0 | 0.00 | 0.00 | 0.00 | 85 | 1019.2 |
| 20260505034739 | 60 | 206 | 2.0 | 3.0 | 0.00 | 0.00 | 0.00 | 85 | 1019.2 |
| 20260505034236 | 60 | 258 | 3.0 | 3.0 | 0.00 | 0.00 | 0.00 | 84 | 1019.3 |
| 20260505033733 | 60 | 200 | 1.0 | 4.0 | 0.00 | 0.00 | 0.00 | 85 | 1019.0 |
| 20260505033231 | 60 | 212 | 0.0 | 3.0 | 0.00 | 0.00 | 0.00 | 84 | 1019.2 |
| 20260505032728 | 60 | 258 | 2.0 | 4.0 | 0.00 | 0.00 | 0.00 | 84 | 1019.0 |
| 20260505032224 | 60 | 235 | 0.0 | 4.0 | 0.00 | 0.00 | 0.00 | 83 | 1019.2 |
| 20260505031722 | 60 | 229 | 2.0 | 4.0 | 0.00 | 0.00 | 0.00 | 82 | 1019.0 |
| 20260505031218 | 60 | 250 | 0.0 | 3.0 | 0.00 | 0.00 | 0.00 | 83 | 1019.0 |
| 20260505030715 | 60 | 257 | 0.0 | 3.0 | 0.00 | 0.00 | 0.00 | 83 | 1018.8 |
| 20260505030211 | 60 | 225 | 2.0 | 4.0 | 0.00 | 0.00 | 0.00 | 84 | 1018.7 |
| 20260505025707 | 61 | 261 | 0.0 | 4.0 | 0.00 | 0.00 | 0.00 | 85 | 1018.8 |
| 20260505025206 | 61 | 236 | 0.0 | 3.0 | 0.00 | 0.00 | 0.00 | 82 | 1018.8 |
| 20260505024703 | 61 | 247 | 4.0 | 5.0 | 0.00 | 0.00 | 0.00 | 81 | 1018.7 |
| 20260505024200 | 61 | 266 | 2.0 | 7.0 | 0.00 | 0.00 | 0.00 | 80 | 1018.9 |
| 20260505023657 | 62 | 266 | 3.0 | 5.0 | 0.00 | 0.00 | 0.00 | 77 | 1018.8 |
| 20260505023154 | 62 | 206 | 3.0 | 7.0 | 0.00 | 0.00 | 0.00 | 77 | 1019.1 |
| 20260505022652 | 62 | 243 | 4.0 | 8.0 | 0.00 | 0.00 | 0.00 | 76 | 1018.7 |
| 20260505022149 | 62 | 205 | 3.0 | 9.0 | 0.00 | 0.00 | 0.00 | 76 | 1018.9 |
| 20260505021645 | 63 | 195 | 1.0 | 5.0 | 0.00 | 0.00 | 0.00 | 76 | 1018.6 |
| 20260505021142 | 63 | 291 | 1.0 | 6.0 | 0.00 | 0.00 | 0.00 | 75 | 1018.8 |
| 20260505020638 | 63 | 258 | 2.0 | 6.0 | 0.00 | 0.00 | 0.00 | 76 | 1018.6 |
| 20260505020134 | 63 | 222 | 3.0 | 6.0 | 0.00 | 0.00 | 0.00 | 75 | 1018.6 |
| 20260505015631 | 64 | 270 | 2.0 | 5.0 | 0.00 | 0.00 | 0.00 | 74 | 1018.6 |
| 20260505015128 | 64 | 204 | 0.0 | 5.0 | 0.00 | 0.00 | 0.00 | 72 | 1018.6 |
| 20260505014625 | 65 | 265 | 2.0 | 3.0 | 0.00 | 0.00 | 0.00 | 67 | 1018.7 |
| 20260505014122 | 64 | 265 | 0.0 | 6.0 | 0.00 | 0.00 | 0.00 | 68 | 1018.6 |
| 20260505013619 | 64 | 274 | 3.0 | 8.0 | 0.00 | 0.00 | 0.00 | 67 | 1018.4 |
| 20260505013116 | 64 | 289 | 3.0 | 8.0 | 0.00 | 0.00 | 0.00 | 68 | 1018.5 |
| 20260505012615 | 65 | 270 | 2.0 | 4.0 | 0.00 | 0.00 | 0.00 | 68 | 1018.7 |
| 20260505012111 | 64 | 235 | 4.0 | 5.0 | 0.00 | 0.00 | 0.00 | 68 | 1018.7 |
| 20260505011607 | 65 | 233 | 3.0 | 4.0 | 0.00 | 0.00 | 0.00 | 68 | 1018.8 |
| 20260505011104 | 65 | 270 | 0.0 | 4.0 | 0.00 | 0.00 | 0.00 | 68 | 1018.6 |
| 20260505010559 | 65 | 265 | 2.0 | 5.0 | 0.00 | 0.00 | 0.00 | 67 | 1018.8 |
| 20260505010056 | 65 | 8 | 0.0 | 4.0 | 0.00 | 0.00 | 0.00 | 67 | 1018.7 |
| 20260505005552 | 65 | 246 | 1.0 | 4.0 | 0.00 | 0.00 | 0.00 | 68 | 1018.8 |
| 20260505005049 | 65 | 270 | 0.0 | 6.0 | 0.00 | 0.00 | 0.00 | 66 | 1018.6 |
| 20260505004546 | 65 | 239 | 3.0 | 6.0 | 0.00 | 0.00 | 0.00 | 66 | 1018.7 |
| 20260505004043 | 65 | 254 | 0.0 | 5.0 | 0.00 | 0.00 | 0.00 | 66 | 1018.7 |
| 20260505003541 | 65 | 240 | 3.0 | 7.0 | 0.00 | 0.00 | 0.00 | 66 | 1018.7 |
| 20260505003038 | 65 | 255 | 0.0 | 5.0 | 0.00 | 0.00 | 0.00 | 65 | 1018.7 |
| 20260505002537 | 66 | 279 | 2.0 | 6.0 | 0.00 | 0.00 | 0.00 | 65 | 1018.7 |
| 20260505002032 | 66 | 227 | 3.0 | 10.0 | 0.00 | 0.00 | 0.00 | 65 | 1018.6 |
| 20260505001528 | 66 | 246 | 3.0 | 8.0 | 0.00 | 0.00 | 0.00 | 65 | 1018.8 |
| 20260505001026 | 67 | 246 | 2.0 | 12.0 | 0.00 | 0.00 | 0.00 | 63 | 1018.9 |
| 20260505000523 | 67 | 321 | 3.0 | 7.0 | 0.00 | 0.00 | 0.00 | 63 | 1018.7 |
| 20260505000020 | 67 | 273 | 4.0 | 7.0 | 0.00 | 0.00 | 0.00 | 62 | 1018.6 |
| 20260504235517 | 67 | 322 | 3.0 | 7.0 | 0.00 | 0.00 | 0.00 | 63 | 1018.6 |
| 20260504235013 | 67 | 305 | 3.0 | 6.0 | 0.00 | 0.00 | 0.00 | 62 | 1018.7 |
| 20260504234511 | 66 | 314 | 4.0 | 6.0 | 0.00 | 0.00 | 0.00 | 61 | 1018.5 |
| 20260504234008 | 67 | 289 | 3.0 | 12.0 | 0.00 | 0.00 | 0.00 | 61 | 1018.6 |
| 20260504233503 | 67 | 345 | 0.0 | 11.0 | 0.00 | 0.00 | 0.00 | 61 | 1018.5 |
| 20260504233000 | 67 | 329 | 3.0 | 12.0 | 0.00 | 0.00 | 0.00 | 62 | 1018.5 |
| 20260504232457 | 67 | 228 | 0.0 | 7.0 | 0.00 | 0.00 | 0.00 | 64 | 1018.4 |
| 20260504231955 | 67 | 180 | 1.0 | 13.0 | 0.00 | 0.00 | 0.00 | 63 | 1018.7 |
| 20260504231451 | 68 | 12 | 0.0 | 6.0 | 0.00 | 0.00 | 0.00 | 60 | 1018.3 |
| 20260504230947 | 67 | 208 | 2.0 | 10.0 | 0.00 | 0.00 | 0.00 | 62 | 1018.5 |
| 20260504230444 | 67 | 244 | 5.0 | 11.0 | 0.00 | 0.00 | 0.00 | 62 | 1018.5 |
| 20260504225943 | 67 | 214 | 2.0 | 9.0 | 0.00 | 0.00 | 0.00 | 61 | 1018.3 |
| 20260504225439 | 68 | 240 | 3.0 | 9.0 | 0.00 | 0.00 | 0.00 | 60 | 1018.5 |
| 20260504224936 | 66 | 236 | 2.0 | 4.0 | 0.00 | 0.00 | 0.00 | 60 | 1018.6 |
| 20260504224433 | 66 | 261 | 0.0 | 12.0 | 0.00 | 0.00 | 0.00 | 61 | 1018.7 |
| 20260504223930 | 68 | 275 | 0.0 | 9.0 | 0.00 | 0.00 | 0.00 | 60 | 1018.5 |
| 20260504223426 | 68 | 270 | 2.0 | 6.0 | 0.00 | 0.00 | 0.00 | 61 | 1018.7 |
| 20260504222921 | 67 | 341 | 4.0 | 8.0 | 0.00 | 0.00 | 0.00 | 61 | 1019.0 |
| 20260504222419 | 66 | 275 | 2.0 | 5.0 | 0.00 | 0.00 | 0.00 | 62 | 1018.7 |
| 20260504221917 | 67 | 228 | 6.0 | 10.0 | 0.00 | 0.00 | 0.00 | 61 | 1019.2 |
| 20260504221414 | 67 | 265 | 6.0 | 9.0 | 0.00 | 0.00 | 0.00 | 62 | 1018.9 |
| 20260504220911 | 66 | 312 | 2.0 | 6.0 | 0.00 | 0.00 | 0.00 | 63 | 1019.1 |
| 20260504220407 | 66 | 270 | 2.0 | 6.0 | 0.00 | 0.00 | 0.00 | 62 | 1019.0 |
| 20260504215905 | 66 | 233 | 3.0 | 8.0 | 0.00 | 0.00 | 0.00 | 63 | 1019.0 |
| 20260504215401 | 67 | 215 | 1.0 | 6.0 | 0.00 | 0.00 | 0.00 | 64 | 1019.0 |
| 20260504214857 | 67 | 247 | 6.0 | 10.0 | 0.00 | 0.00 | 0.00 | 64 | 1019.1 |
| 20260504214354 | 67 | 276 | 5.0 | 9.0 | 0.00 | 0.00 | 0.00 | 64 | 1019.3 |
| 20260504213851 | 68 | 275 | 2.0 | 7.0 | 0.00 | 0.00 | 0.00 | 62 | 1019.4 |
| 20260504213347 | 68 | 249 | 0.0 | 7.0 | 0.00 | 0.00 | 0.00 | 62 | 1019.3 |
| 20260504212844 | 68 | 215 | 1.0 | 7.0 | 0.00 | 0.00 | 0.00 | 63 | 1019.3 |
| 20260504212340 | 68 | 180 | 2.0 | 5.0 | 0.00 | 0.00 | 0.00 | 65 | 1019.4 |
| 20260504211838 | 68 | 215 | 4.0 | 8.0 | 0.00 | 0.00 | 0.00 | 64 | 1019.3 |
| 20260504211334 | 69 | 265 | 0.0 | 6.0 | 0.00 | 0.00 | 0.00 | 63 | 1019.7 |
| 20260504210832 | 68 | 246 | 3.0 | 7.0 | 0.00 | 0.00 | 0.00 | 63 | 1019.6 |
| 20260504210328 | 67 | 211 | 0.0 | 6.0 | 0.00 | 0.00 | 0.00 | 63 | 1019.4 |
| 20260504205826 | 67 | 210 | 3.0 | 7.0 | 0.00 | 0.00 | 0.00 | 64 | 1019.5 |
| 20260504205323 | 68 | 217 | 5.0 | 7.0 | 0.00 | 0.00 | 0.00 | 62 | 1019.4 |
| 20260504204821 | 67 | 236 | 3.0 | 6.0 | 0.00 | 0.00 | 0.00 | 64 | 1019.3 |
| 20260504204320 | 68 | 229 | 4.0 | 6.0 | 0.00 | 0.00 | 0.00 | 62 | 1019.4 |
| 20260504203819 | 68 | 270 | 2.0 | 4.0 | 0.00 | 0.00 | 0.00 | 65 | 1019.4 |
| 20260504203315 | 68 | 99 | 2.0 | 4.0 | 0.00 | 0.00 | 0.00 | 65 | 1019.6 |
| 20260504202810 | 69 | 214 | 3.0 | 9.0 | 0.00 | 0.00 | 0.00 | 63 | 1019.6 |
| 20260504202308 | 68 | 228 | 4.0 | 7.0 | 0.00 | 0.00 | 0.00 | 62 | 1019.5 |
| 20260504201805 | 69 | 265 | 0.0 | 6.0 | 0.00 | 0.00 | 0.00 | 60 | 1019.7 |
| 20260504201302 | 69 | 210 | 0.0 | 6.0 | 0.00 | 0.00 | 0.00 | 57 | 1019.6 |
| 20260504200759 | 68 | 225 | 2.0 | 7.0 | 0.00 | 0.00 | 0.00 | 53 | 1019.8 |
| 20260504200255 | 68 | 314 | 4.0 | 7.0 | 0.00 | 0.00 | 0.00 | 51 | 1019.8 |
| 20260504195752 | 67 | 236 | 4.0 | 8.0 | 0.00 | 0.00 | 0.00 | 52 | 1019.5 |
| 20260504195248 | 69 | 261 | 7.0 | 7.0 | 0.00 | 0.00 | 0.00 | 50 | 1019.5 |
| 20260504194745 | 68 | 206 | 6.0 | 6.0 | 0.00 | 0.00 | 0.00 | 51 | 1019.7 |
| 20260504194241 | 67 | 305 | 2.0 | 5.0 | 0.00 | 0.00 | 0.00 | 50 | 1019.8 |
| 20260504193737 | 66 | 270 | 2.0 | 5.0 | 0.00 | 0.00 | 0.00 | 52 | 1019.8 |
| 20260504193235 | 67 | 216 | 3.0 | 8.0 | 0.00 | 0.00 | 0.00 | 54 | 1019.7 |
| 20260504192733 | 66 | 303 | 4.0 | 6.0 | 0.00 | 0.00 | 0.00 | 54 | 1020.0 |
| 20260504192231 | 67 | 246 | 0.0 | 4.0 | 0.00 | 0.00 | 0.00 | 53 | 1020.2 |
| 20260504191729 | 67 | 221 | 2.0 | 5.0 | 0.00 | 0.00 | 0.00 | 54 | 1019.9 |
| 20260504191226 | 66 | 318 | 0.0 | 7.0 | 0.00 | 0.00 | 0.00 | 53 | 1019.8 |
| 20260504190721 | 66 | 209 | 1.0 | 5.0 | 0.00 | 0.00 | 0.00 | 54 | 1019.9 |
| 20260504190218 | 66 | 270 | 4.0 | 4.0 | 0.00 | 0.00 | 0.00 | 56 | 1019.9 |
| 20260504185715 | 67 | 229 | 2.0 | 7.0 | 0.00 | 0.00 | 0.00 | 55 | 1020.1 |
| 20260504185211 | 65 | 243 | 1.0 | 2.0 | 0.00 | 0.00 | 0.00 | 55 | 1020.2 |
| 20260504184707 | 67 | 275 | 6.0 | 6.0 | 0.00 | 0.00 | 0.00 | 55 | 1020.2 |
| 20260504184203 | 64 | 233 | 2.0 | 8.0 | 0.00 | 0.00 | 0.00 | 58 | 1020.2 |
| 20260504183659 | 65 | 219 | 0.0 | 4.0 | 0.00 | 0.00 | 0.00 | 66 | 1020.0 |
| 20260504183156 | 65 | 235 | 2.0 | 5.0 | 0.00 | 0.00 | 0.00 | 66 | 1020.3 |
| 20260504182654 | 64 | 210 | 3.0 | 8.0 | 0.00 | 0.00 | 0.00 | 65 | 1020.2 |
| 20260504182152 | 65 | 260 | 4.0 | 5.0 | 0.00 | 0.00 | 0.00 | 65 | 1020.1 |
| 20260504181649 | 66 | 259 | 3.0 | 9.0 | 0.00 | 0.00 | 0.00 | 61 | 1020.1 |
| 20260504181147 | 66 | 239 | 4.0 | 7.0 | 0.00 | 0.00 | 0.00 | 57 | 1020.1 |
| 20260504180645 | 67 | 270 | 0.0 | 6.0 | 0.00 | 0.00 | 0.00 | 56 | 1019.9 |
| 20260504180144 | 68 | 213 | 4.0 | 7.0 | 0.00 | 0.00 | 0.00 | 54 | 1020.1 |
| 20260504175641 | 66 | 255 | 3.0 | 4.0 | 0.00 | 0.00 | 0.00 | 55 | 1020.1 |
| 20260504175137 | 65 | 257 | 2.0 | 6.0 | 0.00 | 0.00 | 0.00 | 56 | 1020.2 |
| 20260504174636 | 64 | 258 | 3.0 | 3.0 | 0.00 | 0.00 | 0.00 | 58 | 1020.1 |
| 20260504174131 | 64 | 199 | 2.0 | 5.0 | 0.00 | 0.00 | 0.00 | 58 | 1019.9 |
| 20260504173629 | 63 | 270 | 2.0 | 4.0 | 0.00 | 0.00 | 0.00 | 58 | 1019.9 |
| 20260504173126 | 63 | 270 | 1.0 | 6.0 | 0.00 | 0.00 | 0.00 | 59 | 1020.1 |
| 20260504172622 | 66 | 250 | 2.0 | 7.0 | 0.00 | 0.00 | 0.00 | 59 | 1020.3 |
| 20260504172120 | 65 | 278 | 1.0 | 7.0 | 0.00 | 0.00 | 0.00 | 60 | 1019.8 |
| 20260504171616 | 64 | 233 | 3.0 | 5.0 | 0.00 | 0.00 | 0.00 | 59 | 1020.1 |
| 20260504171113 | 64 | 270 | 2.0 | 5.0 | 0.00 | 0.00 | 0.00 | 61 | 1019.9 |
| 20260504170609 | 62 | 188 | 0.0 | 5.0 | 0.00 | 0.00 | 0.00 | 62 | 1019.9 |
| 20260504170107 | 62 | 331 | 0.0 | 3.0 | 0.00 | 0.00 | 0.00 | 63 | 1019.9 |
| 20260504150952 | 60 | 263 | 0.0 | 4.0 | 0.00 | 0.00 | 0.00 | 72 | 1019.7 |
| 20260504150450 | 60 | 270 | 3.0 | 7.0 | 0.00 | 0.00 | 0.00 | 73 | 1019.5 |
| 20260504140916 | 59 | 248 | 0.0 | 2.0 | 0.00 | 0.00 | 0.00 | 76 | 1019.0 |
| 20260504140412 | 59 | 282 | 0.0 | 2.0 | 0.00 | 0.00 | 0.00 | 76 | 1019.2 |
| 20260504130337 | 59 | 253 | 2.0 | 3.0 | 0.00 | 0.00 | 0.00 | 76 | 1019.1 |
| 20260504120300 | 59 | 240 | 0.0 | 2.0 | 0.00 | 0.00 | 0.00 | 78 | 1019.0 |
| 20260504110224 | 59 | 203 | 1.0 | 1.0 | 0.00 | 0.00 | 0.00 | 81 | 1018.8 |
| 20260504100142 | 59 | 255 | 0.0 | 1.0 | 0.00 | 0.00 | 0.00 | 81 | 1018.7 |
| 20260504090105 | 59 | 270 | 1.0 | 1.0 | 0.00 | 0.00 | 0.00 | 78 | 1018.8 |